sim
Sign-in with your pilot id or email,
or register
Callsign
Passwort

Schedule Details

Flight Number: RYR2314 (2)
Departure: London Stansted Airport (EGSS) at 08:40
Arrival: Bratislava M. R. Stefanik Airport (LZIB) at 10:50
Route: Ryanair Passenger Schedule. Enter filed route here before submitting Pirep.

Weather Information
Getting current METAR information for EGSS 280250Z AUTO 07007KT 8000 OVC003 09/09 Q1036
Getting current METAR information for LZIB 280230Z 26003KT CAVOK 11/06 Q1025

Schedule Frequency

Route Map